Location: Eymir
(36.7333°N, 29.7833°E)
Time: 05:18:49
(UTC+00:00)

RS-15 - Visible Passes

Search period start: 14 May 2026 00:00
Search period end: 24 May 2026 00:00
Orbit: 1892 x 2153 km, 64.8° (Epoch: 13 May)

Date Brightness Start Highest point End Pass type
(mag) Time Alt. Az. Time Alt. Az. Time Alt. Az.
14 May 9.9 19:11:57 10° WNW 19:19:06 18° W 19:26:25 10° SW visible
15 May 9.7 18:34:30 10° NW 18:43:34 27° WSW 18:52:53 10° SSW visible
16 May 9.4 17:57:39 10° NW 18:07:56 37° WSW 18:18:32 10° SSW visible
17 May 9.0 17:21:07 10° NW 17:32:11 49° WSW 17:43:38 10° S visible
18 May 10.3 19:04:18 10° W 19:06:27 11° W 19:08:38 10° WSW visible
19 May 10.1 18:24:16 10° WNW 18:31:03 17° W 18:37:59 10° SW visible
20 May 9.9 17:46:41 10° NW 17:55:32 25° WSW 18:04:37 10° SSW visible
